When you browse on this site, cookies collect data to enhance your experience and personalize the content and advertising you see.
Visit our Privacy Policy to learn more. By continuing to use the site, you agree to this use of cookies and data.
  • In Czech Republic
  • List of Countries
  • For 7 days
  • Water Temperature
  • Satellite Maps
  • Weather Map
  • Weather Widgets
  • user-avatar
    Login

    Hourly Weather Kuzminka

    Today, 17 February, Sunday

    Time Temperature Precipitation Wind Pressure Humidity
    00:00 -2°C° 0 mm 5 mps 733 mmHg 85%
    01:00 -2°C° 0 mm 5 mps 732 mmHg 84%
    02:00 -3°C° 0 mm 6 mps 731 mmHg 83%
    03:00 -3°C° 0 mm 6 mps 731 mmHg 84%
    04:00 -3°C° 0 mm 6 mps 730 mmHg 85%
    05:00 -4°C° 0 mm 6 mps 730 mmHg 86%
    06:00 -3°C° 0 mm 6 mps 730 mmHg 87%
    07:00 -3°C° 0 mm 6 mps 730 mmHg 87%
    08:00 -1°C° 0 mm 5 mps 730 mmHg 88%
    09:00 -2°C° 0 mm 6 mps 730 mmHg 85%
    10:00 -2°C° 0 mm 6 mps 730 mmHg 82%
    11:00 -2°C° 0 mm 6 mps 730 mmHg 79%
    12:00 -2°C° 0 mm 6 mps 730 mmHg 77%
    13:00 -2°C° 0 mm 7 mps 730 mmHg 75%
    14:00 -2°C° 0 mm 7 mps 730 mmHg 73%
    15:00 -3°C° 0.1 mm 7 mps 730 mmHg 74%
    16:00 -3°C° 0.1 mm 7 mps 731 mmHg 75%
    17:00 -4°C° 0.1 mm 7 mps 731 mmHg 76%
    18:00 -4°C° 0 mm 7 mps 732 mmHg 76%
    19:00 -6°C° 0 mm 7 mps 732 mmHg 76%
    20:00 -6°C° 0 mm 7 mps 732 mmHg 76%
    21:00 -6°C° 0.1 mm 7 mps 733 mmHg 77%
    22:00 -5°C° 0.1 mm 6 mps 734 mmHg 78%
    23:00 -5°C° 0.1 mm 6 mps 734 mmHg 79%

    Tomorrow, 18 February, Monday

    Time Temperature Precipitation Wind Pressure Humidity
    00:00 -6°C° 0 mm 6 mps 735 mmHg 78%
    01:00 -6°C° 0 mm 6 mps 736 mmHg 78%
    02:00 -6°C° 0 mm 6 mps 737 mmHg 78%
    03:00 -8°C° 0 mm 6 mps 738 mmHg 79%
    04:00 -9°C° 0 mm 6 mps 738 mmHg 81%
    05:00 -8°C° 0 mm 5 mps 739 mmHg 82%
    06:00 -10°C° 0 mm 5 mps 740 mmHg 83%
    07:00 -10°C° 0 mm 5 mps 740 mmHg 84%
    08:00 -11°C° 0 mm 5 mps 741 mmHg 85%
    09:00 -10°C° 0 mm 5 mps 742 mmHg 83%
    10:00 -10°C° 0 mm 5 mps 742 mmHg 80%
    11:00 -8°C° 0 mm 5 mps 743 mmHg 78%
    12:00 -8°C° 0 mm 4 mps 743 mmHg 77%
    13:00 -8°C° 0 mm 4 mps 743 mmHg 76%
    14:00 -8°C° 0 mm 4 mps 744 mmHg 76%
    15:00 -8°C° 0 mm 3 mps 744 mmHg 79%
    16:00 -7°C° 0 mm 2 mps 744 mmHg 83%
    17:00 -8°C° 0 mm 2 mps 745 mmHg 87%
    18:00 -8°C° 0 mm 1 mps 745 mmHg 88%
    19:00 -8°C° 0 mm 1 mps 745 mmHg 89%
    20:00 -9°C° 0 mm 0 mps 745 mmHg 90%
    21:00 -9°C° 0 mm 1 mps 746 mmHg 89%
    22:00 -9°C° 0 mm 1 mps 746 mmHg 89%
    23:00 -10°C° 0 mm 2 mps 746 mmHg 88%

    Day after tomorrow, 19 February, Tuesday

    Time Temperature Precipitation Wind Pressure Humidity
    00:00 -9°C° 0 mm 2 mps 745 mmHg 87%
    01:00 -10°C° 0 mm 3 mps 745 mmHg 86%
    02:00 -10°C° 0 mm 3 mps 745 mmHg 86%
    03:00 -11°C° 0 mm 4 mps 744 mmHg 85%
    04:00 -10°C° 0 mm 4 mps 744 mmHg 84%
    05:00 -11°C° 0 mm 5 mps 743 mmHg 83%
    06:00 -11°C° 0 mm 5 mps 743 mmHg 82%
    07:00 -10°C° 0 mm 5 mps 743 mmHg 82%
    08:00 -10°C° 0 mm 6 mps 742 mmHg 81%
    09:00 -9°C° 0 mm 6 mps 742 mmHg 79%
    10:00 -6°C° 0 mm 6 mps 741 mmHg 77%
    11:00 -5°C° 0 mm 6 mps 741 mmHg 74%
    12:00 -5°C° 0 mm 6 mps 741 mmHg 74%
    13:00 -4°C° 0 mm 6 mps 740 mmHg 73%
    14:00 -3°C° 0 mm 6 mps 740 mmHg 73%
    15:00 -4°C° 0 mm 6 mps 739 mmHg 73%
    16:00 -4°C° 0 mm 6 mps 739 mmHg 74%
    17:00 -4°C° 0 mm 6 mps 738 mmHg 74%
    18:00 -5°C° 0 mm 6 mps 738 mmHg 75%
    19:00 -5°C° 0 mm 6 mps 737 mmHg 76%
    20:00 -5°C° 0 mm 6 mps 737 mmHg 77%
    21:00 -5°C° 0 mm 6 mps 736 mmHg 78%
    22:00 -6°C° 0 mm 6 mps 736 mmHg 79%
    23:00 -6°C° 0 mm 6 mps 735 mmHg 80%

    20 February, Wednesday

    Time Temperature Precipitation Wind Pressure Humidity
    00:00 -5°C° 0 mm 6 mps 735 mmHg 82%
    01:00 -5°C° 0 mm 6 mps 734 mmHg 83%
    02:00 -5°C° 0 mm 6 mps 734 mmHg 85%
    03:00 -5°C° 0 mm 6 mps 733 mmHg 86%
    04:00 -5°C° 0 mm 6 mps 732 mmHg 88%
    05:00 -4°C° 0 mm 6 mps 732 mmHg 89%
    06:00 -4°C° 0 mm 6 mps 731 mmHg 89%
    07:00 -4°C° 0 mm 6 mps 731 mmHg 89%
    08:00 -4°C° 0 mm 6 mps 730 mmHg 89%
    09:00 -3°C° 0.3 mm 6 mps 730 mmHg 89%
    10:00 -3°C° 0.3 mm 6 mps 730 mmHg 89%
    11:00 -2°C° 0.3 mm 6 mps 730 mmHg 89%
    12:00 -2°C° 0.2 mm 6 mps 730 mmHg 91%
    13:00 -1°C° 0.2 mm 5 mps 729 mmHg 92%
    14:00 -1°C° 0.2 mm 5 mps 729 mmHg 93%
    15:00 -1°C° 0.1 mm 4 mps 729 mmHg 92%
    16:00 -1°C° 0.1 mm 4 mps 729 mmHg 91%
    17:00 -1°C° 0.1 mm 4 mps 729 mmHg 90%
    18:00 -1°C° 0.1 mm 4 mps 729 mmHg 91%
    19:00 -1°C° 0.1 mm 4 mps 729 mmHg 91%
    20:00 -1°C° 0.1 mm 4 mps 728 mmHg 92%
    21:00 -1°C° 0.1 mm 4 mps 728 mmHg 92%
    22:00 -1°C° 0.1 mm 3 mps 728 mmHg 93%
    23:00 -1°C° 0.1 mm 3 mps 727 mmHg 94%

    21 February, Thursday

    Time Temperature Precipitation Wind Pressure Humidity
    00:00 -2°C° 0.1 mm 4 mps 727 mmHg 92%
    01:00 -2°C° 0.1 mm 4 mps 727 mmHg 90%
    02:00 -2°C° 0.1 mm 5 mps 727 mmHg 88%
    03:00 -2°C° 0.1 mm 5 mps 728 mmHg 87%
    04:00 -4°C° 0.1 mm 6 mps 728 mmHg 86%
    05:00 -5°C° 0.1 mm 6 mps 728 mmHg 84%
    06:00 -8°C° 0.1 mm 7 mps 729 mmHg 80%
    07:00 -11°C° 0.1 mm 7 mps 730 mmHg 76%
    08:00 -13°C° 0.1 mm 7 mps 730 mmHg 73%
    09:00 -12°C° 0 mm 7 mps 731 mmHg 72%
    10:00 -12°C° 0 mm 7 mps 732 mmHg 72%
    11:00 -10°C° 0 mm 6 mps 732 mmHg 72%
    12:00 -10°C° 0.1 mm 6 mps 733 mmHg 74%
    13:00 -10°C° 0.1 mm 6 mps 733 mmHg 75%
    14:00 -9°C° 0.1 mm 6 mps 734 mmHg 76%
    15:00 -10°C° 0.1 mm 6 mps 734 mmHg 77%
    16:00 -10°C° 0.1 mm 6 mps 735 mmHg 78%
    17:00 -10°C° 0.1 mm 6 mps 736 mmHg 79%
    18:00 -10°C° 0.1 mm 6 mps 736 mmHg 80%
    19:00 -10°C° 0.1 mm 6 mps 737 mmHg 81%
    20:00 -11°C° 0.1 mm 6 mps 738 mmHg 82%
    21:00 -11°C° 0 mm 5 mps 738 mmHg 81%
    22:00 -12°C° 0 mm 5 mps 739 mmHg 81%
    23:00 -12°C° 0 mm 5 mps 739 mmHg 81%

    22 February, Friday

    Time Temperature Precipitation Wind Pressure Humidity
    00:00 -13°C° 0 mm 5 mps 740 mmHg 81%
    01:00 -13°C° 0 mm 5 mps 740 mmHg 82%
    02:00 -13°C° 0 mm 5 mps 741 mmHg 82%
    03:00 -14°C° 0 mm 5 mps 741 mmHg 82%
    04:00 -14°C° 0 mm 5 mps 742 mmHg 82%
    05:00 -15°C° 0 mm 5 mps 742 mmHg 82%
    06:00 -16°C° 0 mm 6 mps 743 mmHg 82%
    07:00 -16°C° 0 mm 6 mps 743 mmHg 82%
    08:00 -16°C° 0 mm 6 mps 744 mmHg 82%
    09:00 -16°C° 0 mm 6 mps 745 mmHg 80%
    10:00 -16°C° 0 mm 6 mps 745 mmHg 78%
    11:00 -17°C° 0 mm 7 mps 746 mmHg 77%
    12:00 -15°C° 0 mm 7 mps 747 mmHg 74%
    13:00 -14°C° 0 mm 7 mps 747 mmHg 71%
    14:00 -13°C° 0 mm 7 mps 748 mmHg 69%
    15:00 -12°C° 0 mm 6 mps 748 mmHg 71%
    16:00 -12°C° 0 mm 6 mps 749 mmHg 73%
    17:00 -12°C° 0 mm 5 mps 750 mmHg 76%
    18:00 -13°C° 0 mm 5 mps 751 mmHg 78%
    19:00 -13°C° 0 mm 5 mps 751 mmHg 80%
    20:00 -13°C° 0 mm 5 mps 752 mmHg 82%
    21:00 -14°C° 0 mm 5 mps 753 mmHg 84%
    22:00 -14°C° 0 mm 4 mps 753 mmHg 85%
    23:00 -15°C° 0 mm 4 mps 754 mmHg 86%
    Show more